Regional Weather Roundup
Issued by NWS Albany, NY

Home | Current Version | Previous Version | Text Only | Print | Product List | Glossary On
Versions: 1 2 3 4 5 6 7 8 9 10 11 12 13 14 15 16 17 18 19 20 21 22 23 24 25 26 27 28 29 30 31 32 33 34 35 36 37 38 39 40 41 42 43 44 45 46 47 48 49 50
668
ASUS41 KALY 231910
RWRALY

NEW YORK STATE HOURLY WEATHER ROUNDUP
NATIONAL WEATHER SERVICE ALBANY NY
300 PM EDT SAT SEP 23 2017

NOTE: "FAIR" INDICATES FEW OR NO CLOUDS BELOW 12,000 FEET WITH NO
SIGNIFICANT WEATHER AND/OR NO OBSTRUCTIONS TO VISIBILITY.

NYZ032-033-038>043-046>054-057>066-NYZ062>081-082-084-232000-
EAST


CITY           SKY/WX    TMP DP  RH WIND       PRES   REMARKS
ALBANY         MOSUNNY   83  55  38 N7        30.06F
GLENS FALLS    SUNNY     81  54  39 NE5       30.06S
POUGHKEEPSIE   SUNNY     84  51  31 VRB7      30.02F
NEWBURGH       SUNNY     84  55  37 N8        30.05F
MONTGOMERY     SUNNY     85  60  42 CALM      30.03F
WHITE PLAINS   SUNNY     85  50  29 N10       30.02F
ISLIP          MOSUNNY   85  64  49 N13       29.99F
NEW YORK CITY  MOSUNNY   85  51  31 N14       30.00F
CENTRAL PARK   SUNNY     86  48  26 NE8       30.04F
$$

NYZ005>009-017-018-044>046-055-056-232000-
CENTRAL


CITY           SKY/WX    TMP DP  RH WIND       PRES   REMARKS
FULTON         SUNNY     84  54  35 W7        30.11F
SYRACUSE       MOSUNNY   84  60  44 VRB7      30.09F
ROME           SUNNY     81  64  56 W8        30.09F
ELMIRA         SUNNY     87  59  38 NE9       30.11F
BINGHAMTON     SUNNY     82  55  39 N10       30.14S
MONTICELLO     SUNNY     84  56  38 NW7       30.10F
$$

NYZ026>034-041>043-087-232000-
NORTH


CITY           SKY/WX    TMP DP  RH WIND       PRES   REMARKS
WATERTOWN      SUNNY     80  54  40 S10       30.08F
FORT DRUM      NOT AVBL
OGDENSBURG     FAIR      87  67  51 SW8       30.05F HX  90
MASSENA        SUNNY     85  67  54 W8        30.05F
SARANAC LAKE   SUNNY     82  62  50 MISG      30.11F
PLATTSBURGH    SUNNY     78  56  46 SE5       30.05F
$$

NYZ001>004-010>016-019>021-085-232000-
WEST


CITY           SKY/WX    TMP DP  RH WIND       PRES   REMARKS
NIAGARA FALLS  SUNNY     89  62  40 NW5       30.11F
BUFFALO        MOSUNNY   83  64  52 S9        30.13F
DUNKIRK        SUNNY     80  60  50 SW3       30.15F
JAMESTOWN      SUNNY     81  61  50 N8        30.20S
WELLSVILLE     SUNNY     83  57  41 VRB7      30.21S
ROCHESTER      MOSUNNY   87  62  43 NW10      30.12F
PENN YAN       SUNNY     85  59  41 VRB5      30.14F
$$

             KEY
       WCI = WIND CHILL INDEX
       VSB = VISIBILITY
       HX  = HEAT INDEX
$$




USA.gov is the U.S. government's official web portal to all federal, state and local government web resources and services.